Regional Weather Roundup
Issued by NWS

Home | Current Version | Previous Version | Text Only | Print | Product List | Glossary On
Versions: 1 2 3 4 5 6 7 8 9 10 11 12 13 14 15 16 17 18 19 20 21 22 23 24 25 26 27 28 29 30 31 32 33 34 35 36 37 38 39 40 41 42 43 44 45 46 47 48 49 50
167
ASUS44 KLIX 281901
RWRLA
LOUISIANA WEATHER ROUNDUP
NATIONAL WEATHER SERVICE NEW ORLEANS LA
100 PM CST SAT FEB 28 2015

NOTE: "FAIR" INDICATES FEW OR NO CLOUDS BELOW 12,000 FEET WITH NO
      SIGNIFICANT WEATHER AND/OR OBSTRUCTIONS TO VISIBILITY.
      SKY/WX - SKY CONDITION AND SIGNIFICANT WEATHER.
      TMP - AIR TEMPERATURE.    DP   - DEWPOINT TEMPERATURE.
      RH  - RELATIVE HUMIDITY.  PRES - PRESSURE.
      HX  - HEAT INDEX.         WCI  - WIND CHILL INDEX.

*  THESE STATIONS ARE NOT NWS OR FAA STATIONS AND ARE NOT UNDER
   NWS QUALITY CONTROL.

LAZ040-048-061>063-065-066-069-282000-
SOUTHEAST LOUISIANA

CITY           SKY/WX    TMP DP  RH WIND       PRES   REMARKS
N.O. AUDUBON   NOT AVBL
N.O. INTL ARPT MOSUNNY   61  43  51 E9G18     30.34F
N.O. LAKEFRONT SUNNY     60  44  55 E14       30.36F
SLIDELL        SUNNY     65  43  44 SE9G20    30.35F
BATON ROUGE    SUNNY     65  43  44 SE10      30.33F
BOOTHVILLE     SUNNY     56  49  77 NE13      30.34F
BELLE CHASSE   MOSUNNY   62  45  53 E13       30.33F
BOGALUSA*        N/A     67  32  27 SE7       30.37F
GALLIANO*      CLEAR     61  47  61 NE6       30.33F
NEW ROADS*     NOT AVBL
GONZALES*      NOT AVBL
HAMMOND*       NOT AVBL
HOUMA*         NOT AVBL
PORT FOURCHON* CLEAR     57  48  72 E18       30.35F

$$

LAZ041-044-053-054-282000-
SOUTHWEST LOUISIANA

CITY           SKY/WX    TMP DP  RH WIND       PRES   REMARKS
LAKE CHARLES   CLOUDY    56  40  55 E10       30.32S
LAFAYETTE      MOSUNNY   62  44  51 VRB6      30.31F
PATTERSON      SUNNY     63  46  55 E13       30.32F
SALT POINT       N/A     63  47  55 SE9G18    30.29F
NEW IBERIA     MOSUNNY   64  45  49 E13       30.31F
CHENAULT AIRPK CLOUDY    55  39  54 E7        30.33S

$$

LAZ027-028-282000-
CENTRAL LOUISIANA

CITY           SKY/WX    TMP DP  RH WIND       PRES   REMARKS
FORT POLK      CLOUDY    55  36  48 E9        30.31F
ALEXANDRIA INT CLOUDY    54  34  46 SE7       30.33F
ALEXANDRIA     CLOUDY    56  33  42 VRB6      30.34F

$$

LAZ001-002-282000-
NORTHWEST LOUISIANA

CITY           SKY/WX    TMP DP  RH WIND       PRES   REMARKS
SHREVEPORT     CLOUDY    42  27  55 E6        30.37F
BARKSDALE AFB  NOT AVBL
DTN SHREVEPORT CLOUDY    41  25  53 E7        30.38F

$$

LAZ014-016-282000-
NORTHEAST LOUISIANA

CITY           SKY/WX    TMP DP  RH WIND       PRES   REMARKS
MONROE         CLOUDY    47  32  56 NE8       30.40F
TALLULAH       CLOUDY    56  32  40 E7        30.37F

$$




USA.gov is the U.S. government's official web portal to all federal, state and local government web resources and services.